Location: Unspecified
(42.9300°N, 71.1866°W)
Time: 04:20:45
(UTC-05:00)

Okean 3 - Visible Passes

Search period start: 21 February 2018 00:00
Search period end: 03 March 2018 00:00
Orbit: 576 x 603 km, 82.5° (Epoch: 20 February)

Date Brightness Start Highest point End Pass type
(mag) Time Alt. Az. Time Alt. Az. Time Alt. Az.
21 Feb 5.4 19:11:29 10° NNW 19:15:07 30° W 19:18:46 10° SSW visible
22 Feb 6.2 19:20:02 10° NW 19:23:08 20° W 19:26:13 10° SW visible
23 Feb 3.7 17:50:14 10° N 17:54:17 47° ENE 17:58:19 10° SSE visible
23 Feb 6.7 19:28:56 10° NW 19:31:05 14° W 19:33:14 10° WSW visible
24 Feb 3.4 17:58:15 10° N 18:02:26 72° E 18:06:36 10° SSE visible
25 Feb 3.7 18:06:22 10° NNW 18:10:32 74° W 18:14:42 10° S visible
26 Feb 4.6 18:14:35 10° NNW 18:18:37 48° W 18:22:39 10° SSW visible
27 Feb 5.5 18:22:56 10° NNW 18:26:39 32° W 18:30:22 10° SSW visible
28 Feb 7.3 05:16:10 10° E 05:17:16 11° E 05:18:22 10° ENE visible
28 Feb 6.3 18:31:27 10° NW 18:34:39 22° W 18:37:52 10° SW visible
01 Mar 6.8 05:22:35 10° SE 05:25:12 16° E 05:27:50 10° NE visible
01 Mar 6.9 18:40:16 10° NW 18:42:37 15° W 18:44:58 10° WSW visible
02 Mar 6.2 05:29:49 10° SE 05:33:11 24° E 05:36:33 10° NE visible
